Location: Asheville, NC
(35.6000°N, 82.5500°W)
Time: 05:35:34
(UTC-05:00)

Vanguard 2 - Pass Details

Date: 11 February 2018
Orbit: 553 x 2939 km, 32.9° (Epoch: 17 February)

Event Time Altitude Azimuth Distance (km) Brightness Sun altitude
Rises 01:36:23 0° 271° (W) 2,714 - -65.5°
Reaches altitude 10° 01:38:36 10° 261° (W) 1,859 - -65.2°
Maximum altitude 01:42:17 33° 196° (SSW) 1,085 - -64.8°
Drops below altitude 10° 01:46:57 10° 133° (SE) 2,383 - -64.3°
Sets 01:50:11 0° 124° (SE) 3,636 - -63.8°
